Time,TemperatureF,DewpointF,PressureIn,WindDirection,WindDirectionDegrees,WindSpeedMPH,WindSpeedGustMPH,Humidity,HourlyPrecipIn,Conditions,Clouds,dailyrainin,SoftwareType,DateUTC
2013-10-15 00:22:00,34.0,32.0,30.27,WSW,242,1.0,3.0,93,0.00,,,0.00,,2013-10-15 06:22:00,
2013-10-15 00:42:00,34.0,32.0,30.28,WSW,243,0.0,3.0,93,0.00,,,0.00,,2013-10-15 06:42:00,
2013-10-15 00:52:00,33.0,31.0,30.28,WSW,243,0.0,1.0,94,0.00,,,0.00,,2013-10-15 06:52:00,
2013-10-15 01:21:00,32.0,30.0,30.29,WSW,243,0.0,3.0,94,0.00,,,0.00,,2013-10-15 07:21:00,
2013-10-15 01:42:00,32.0,30.0,30.29,WSW,243,0.0,0.0,94,0.00,,,0.00,,2013-10-15 07:42:00,
2013-10-15 01:52:00,31.0,29.0,30.30,WSW,243,0.0,1.0,94,0.00,,,0.00,,2013-10-15 07:52:00,
2013-10-15 02:21:00,31.0,30.0,30.30,WSW,243,0.0,1.0,95,0.00,,,0.00,,2013-10-15 08:21:00,
2013-10-15 02:42:00,31.0,30.0,30.30,WSW,243,0.0,3.0,95,0.00,,,0.00,,2013-10-15 08:42:00,
2013-10-15 02:52:00,31.0,30.0,30.30,WSW,243,0.0,2.0,95,0.00,,,0.00,,2013-10-15 08:52:00,
2013-10-15 03:22:00,31.0,30.0,30.29,WSW,243,0.0,2.0,96,0.00,,,0.00,,2013-10-15 09:22:00,
2013-10-15 03:53:00,30.0,29.0,30.28,WSW,256,2.0,3.0,96,0.00,,,0.00,,2013-10-15 09:53:00,
2013-10-15 04:23:00,31.0,30.0,30.32,West,259,0.0,3.0,96,0.00,,,0.00,,2013-10-15 10:23:00,
2013-10-15 04:42:00,31.0,30.0,30.31,West,259,1.0,2.0,95,0.00,,,0.00,,2013-10-15 10:42:00,
2013-10-15 04:53:00,30.0,29.0,30.31,West,259,0.0,2.0,95,0.00,,,0.00,,2013-10-15 10:53:00,
2013-10-15 05:22:00,30.0,29.0,30.29,West,259,0.0,0.0,95,0.00,,,0.00,,2013-10-15 11:22:00,
2013-10-15 05:42:00,29.0,28.0,30.30,West,259,0.0,0.0,95,0.00,,,0.00,,2013-10-15 11:42:00,
2013-10-15 05:52:00,30.0,29.0,30.29,West,259,0.0,2.0,95,0.00,,,0.00,,2013-10-15 11:52:00,
2013-10-15 06:21:00,30.0,28.0,30.32,WSW,258,1.0,3.0,94,0.00,,,0.00,,2013-10-15 12:21:00,
2013-10-15 06:42:00,30.0,28.0,30.32,West,259,2.0,3.0,94,0.00,,,0.00,,2013-10-15 12:42:00,
2013-10-15 06:52:00,30.0,28.0,30.32,WSW,258,0.0,3.0,93,0.00,,,0.00,,2013-10-15 12:52:00,
2013-10-15 07:11:00,30.0,28.0,30.32,West,259,0.0,0.0,94,0.00,,,0.00,,2013-10-15 13:11:00,
2013-10-15 07:21:00,29.0,27.0,30.33,West,259,0.0,0.0,94,0.00,,,0.00,,2013-10-15 13:21:00,
2013-10-15 07:41:00,28.0,27.0,30.35,West,259,0.0,0.0,94,0.00,,,0.00,,2013-10-15 13:41:00,
2013-10-15 07:52:00,28.0,27.0,30.35,WSW,258,0.0,0.0,94,0.00,,,0.00,,2013-10-15 13:52:00,
2013-10-15 08:11:00,27.0,25.0,30.36,West,259,0.0,0.0,93,0.00,,,0.00,,2013-10-15 14:11:00,
2013-10-15 08:21:00,27.0,26.0,30.36,West,259,0.0,0.0,94,0.00,,,0.00,,2013-10-15 14:21:00,
2013-10-15 08:42:00,28.0,27.0,30.36,WSW,258,0.0,0.0,95,0.00,,,0.00,,2013-10-15 14:42:00,
2013-10-15 08:52:00,32.0,31.0,30.34,West,259,0.0,0.0,97,0.00,,,0.00,,2013-10-15 14:52:00,
2013-10-15 09:11:00,32.0,31.0,30.35,West,259,0.0,0.0,95,0.00,,,0.00,,2013-10-15 15:11:00,
2013-10-15 09:22:00,35.0,33.0,30.34,West,259,0.0,0.0,91,0.00,,,0.00,,2013-10-15 15:22:00,
2013-10-15 09:43:00,37.0,34.0,30.34,West,259,0.0,0.0,87,0.00,,,0.00,,2013-10-15 15:43:00,
2013-10-15 09:53:00,38.0,33.0,30.33,West,259,0.0,1.0,83,0.00,,,0.00,,2013-10-15 15:53:00,
2013-10-15 10:42:00,41.0,34.0,30.32,West,259,0.0,2.0,76,0.00,,,0.00,,2013-10-15 16:42:00,
2013-10-15 10:53:00,42.0,34.0,30.32,West,259,0.0,3.0,73,0.00,,,0.00,,2013-10-15 16:53:00,
2013-10-15 11:42:00,44.0,34.0,30.32,West,271,1.0,3.0,68,0.00,,,0.00,,2013-10-15 17:42:00,
2013-10-15 11:53:00,45.0,35.0,30.32,West,278,2.0,6.0,69,0.00,,,0.00,,2013-10-15 17:53:00,
2013-10-15 12:12:00,45.0,35.0,30.32,NW,314,2.0,5.0,69,0.00,,,0.00,,2013-10-15 18:12:00,
2013-10-15 12:42:00,47.0,35.0,30.31,NNW,328,0.0,6.0,62,0.00,,,0.00,,2013-10-15 18:42:00,
2013-10-15 13:21:00,50.0,35.0,30.29,North,11,1.0,6.0,57,0.00,,,0.00,,2013-10-15 19:21:00,
2013-10-15 13:42:00,50.0,35.0,30.29,North,8,4.0,7.0,57,0.00,,,0.00,,2013-10-15 19:42:00,
2013-10-15 13:52:00,51.0,37.0,30.27,North,2,2.0,7.0,58,0.00,,,0.00,,2013-10-15 19:52:00,
2013-10-15 14:12:00,52.0,35.0,30.25,North,1,3.0,7.0,53,0.00,,,0.00,,2013-10-15 20:12:00,
2013-10-15 14:21:00,52.0,37.0,30.25,NNW,329,3.0,12.0,56,0.00,,,0.00,,2013-10-15 20:21:00,
2013-10-15 14:42:00,53.0,38.0,30.25,North,349,2.0,9.0,56,0.00,,,0.00,,2013-10-15 20:42:00,
2013-10-15 14:52:00,54.0,38.0,30.24,NNW,336,3.0,9.0,54,0.00,,,0.00,,2013-10-15 20:52:00,
2013-10-15 15:22:00,53.0,32.0,30.24,NNE,13,0.0,12.0,44,0.00,,,0.00,,2013-10-15 21:22:00,
2013-10-15 15:44:00,54.0,34.0,30.22,NW,323,1.0,12.0,47,0.00,,,0.00,,2013-10-15 21:44:00,
2013-10-15 15:54:00,53.0,32.0,30.23,North,355,4.0,7.0,44,0.00,,,0.00,,2013-10-15 21:54:00,
2013-10-15 16:23:00,54.0,33.0,30.22,North,355,2.0,6.0,44,0.00,,,0.00,,2013-10-15 22:23:00,
2013-10-15 16:43:00,55.0,32.0,30.21,North,351,1.0,7.0,41,0.00,,,0.00,,2013-10-15 22:43:00,
2013-10-15 16:53:00,55.0,30.0,30.20,North,351,1.0,6.0,38,0.00,,,0.00,,2013-10-15 22:53:00,
2013-10-15 17:22:00,55.0,29.0,30.21,North,351,2.0,5.0,36,0.00,,,0.00,,2013-10-15 23:22:00,
2013-10-15 17:52:00,55.0,26.0,30.21,North,351,1.0,7.0,33,0.00,,,0.00,,2013-10-15 23:52:00,
2013-10-15 18:11:00,55.0,25.0,30.20,North,351,0.0,2.0,31,0.00,,,0.00,,2013-10-16 00:11:00,
2013-10-15 18:22:00,54.0,23.0,30.21,North,351,1.0,3.0,30,0.00,,,0.00,,2013-10-16 00:22:00,
2013-10-15 18:42:00,52.0,23.0,30.22,North,351,0.0,3.0,32,0.00,,,0.00,,2013-10-16 00:42:00,
2013-10-15 18:52:00,49.0,25.0,30.23,North,351,0.0,0.0,38,0.00,,,0.00,,2013-10-16 00:52:00,
2013-10-15 19:11:00,48.0,25.0,30.25,North,351,0.0,0.0,41,0.00,,,0.00,,2013-10-16 01:11:00,
2013-10-15 19:22:00,45.0,26.0,30.26,North,351,0.0,0.0,47,0.00,,,0.00,,2013-10-16 01:22:00,
2013-10-15 19:42:00,44.0,27.0,30.26,North,351,0.0,2.0,50,0.00,,,0.00,,2013-10-16 01:42:00,
2013-10-15 19:52:00,42.0,27.0,30.27,North,351,2.0,3.0,55,0.00,,,0.00,,2013-10-16 01:52:00,
2013-10-15 20:22:00,41.0,28.0,30.27,North,0,1.0,5.0,59,0.00,,,0.00,,2013-10-16 02:22:00,
2013-10-15 20:42:00,41.0,28.0,30.27,North,0,2.0,3.0,59,0.00,,,0.00,,2013-10-16 02:42:00,
2013-10-15 20:52:00,40.0,27.0,30.27,NNE,28,3.0,5.0,59,0.00,,,0.00,,2013-10-16 02:52:00,
2013-10-15 21:22:00,39.0,27.0,30.25,NNE,30,2.0,5.0,62,0.00,,,0.00,,2013-10-16 03:22:00,
2013-10-15 21:44:00,39.0,27.0,30.25,NNE,33,3.0,6.0,61,0.00,,,0.00,,2013-10-16 03:44:00,
2013-10-15 21:55:00,38.0,27.0,30.25,NE,34,1.0,6.0,63,0.00,,,0.00,,2013-10-16 03:55:00,
2013-10-15 22:13:00,38.0,27.0,30.23,NE,34,1.0,3.0,65,0.00,,,0.00,,2013-10-16 04:13:00,
2013-10-15 22:24:00,37.0,26.0,30.23,NE,34,1.0,3.0,64,0.00,,,0.00,,2013-10-16 04:24:00,
2013-10-15 22:43:00,37.0,26.0,30.24,NE,34,1.0,3.0,64,0.00,,,0.00,,2013-10-16 04:43:00,
2013-10-15 22:54:00,36.0,25.0,30.24,NE,36,3.0,5.0,63,0.00,,,0.00,,2013-10-16 04:54:00,
2013-10-15 23:22:00,37.0,25.0,30.22,NE,36,2.0,5.0,62,0.00,,,0.00,,2013-10-16 05:22:00,
2013-10-15 23:43:00,36.0,25.0,30.23,NE,36,2.0,3.0,63,0.00,,,0.00,,2013-10-16 05:43:00,
2013-10-15 23:53:00,36.0,25.0,30.23,NE,36,2.0,3.0,65,0.00,,,0.00,,2013-10-16 05:53:00,